Location: Unspecified
(0.0000°N, 0.0000°E)
Time: 12:00:37
(UTC+00:00)

Vanguard 2 - Pass Details

Date: 20 December 2018
Orbit: 552 x 2939 km, 32.9° (Epoch: 25 March)

Event Time Altitude Azimuth Distance (km) Brightness Sun altitude
Rises 12:17:44 0° 223° (SW) 5,699 12.3 66.1°
Reaches altitude 10° 12:22:35 10° 215° (SW) 4,274 11.8 65.8°
Maximum altitude 12:31:52 33° 155° (SSE) 2,053 10.6 65.1°
Drops below altitude 10° 12:37:49 10° 92° (E) 2,718 10.4 64.6°
Sets 12:40:12 0° 82° (E) 3,423 10.7 64.4°
